This demonstration page uses our WeatherBlox Daily Observations layout. Learn more.

Left ArrowRight Arrow

38.88101, -77.10428

Hourly Observations for July 25, 2021

Temp ( °F °C ) Dew Point ( °F °C ) Humidity (%) Winds ( mph kmh ) Pressure ( in mb ) Visibility ( mi km ) Precip ( " mm )
12:52 am 00:52 Cloudy 76 24.4 64 17.8 67 67 S 13 20 30.01 1016 10 16 N/A
1:52 am 01:52 Cloudy 76 24.4 64 17.8 67 67 S 14 22 30.00 1016 10 16 N/A
2:52 am 02:52 Cloudy 75 23.9 64 17.8 69 69 S 14 22 29.99 1016 10 16 N/A
3:52 am 03:52 Clear 75 23.9 64 17.8 69 69 S 15 24 29.95 1014 10 16 N/A
4:52 am 04:52 Mostly Cloudy 74 23.3 64 17.8 71 71 S 13 20 29.94 1014 10 16 N/A
5:52 am 05:52 Cloudy 74 23.3 64 17.8 71 71 S 8 13 29.95 1014 10 16 N/A
6:52 am 06:52 Cloudy 74 23.3 66 18.9 76 76 S 9 15 29.95 1014 10 16 N/A
7:52 am 07:52 Cloudy 75 23.9 67 19.4 76 76 SW 6 9 29.97 1015 10 16 N/A
8:52 am 08:52 Cloudy 76 24.4 67 19.4 74 74 SSW 8 13 29.96 1015 10 16 N/A
9:52 am 09:52 Cloudy 77 25 68 20 74 74 SSW 12 19 29.96 1014 10 16 N/A
10:52 am 10:52 Cloudy 81 27.2 70 21.1 69 69 SSW 12 19 29.94 1014 10 16 N/A
11:52 am 11:52 Cloudy 83 28.3 71 21.7 67 67 S 13 20 29.94 1014 10 16 N/A
12:52 pm 12:52 Cloudy 85 29.4 72 22.2 65 65 S 13 20 29.93 1014 10 16 N/A
1:52 pm 13:52 Mostly Cloudy 86 30 73 22.8 65 65 S 10 17 29.92 1013 10 16 N/A
2:52 pm 14:52 Mostly Cloudy 88 31.1 72 22.2 59 59 S 14 22 29.91 1013 10 16 N/A
3:52 pm 15:52 Mostly Cloudy 88 31.1 71 21.7 57 57 S 10 17 29.89 1012 10 16 N/A
4:52 pm 16:52 Mostly Cloudy 88 31.1 70 21.1 55 55 S 9 15 29.88 1012 10 16 N/A
5:52 pm 17:52 Mostly Cloudy 87 30.6 73 22.8 63 63 S 14 22 29.87 1012 10 16 N/A
6:52 pm 18:52 Mostly Cloudy 86 30 73 22.8 65 65 S 9 15 29.87 1012 10 16 N/A
7:52 pm 19:52 Mostly Cloudy 85 29.4 74 23.3 70 70 S 10 17 29.86 1011 10 16 N/A
8:52 pm 20:52 Mostly Cloudy 84 28.9 74 23.3 72 72 S 8 13 29.88 1012 10 16 N/A
9:52 pm 21:52 Mostly Cloudy 84 28.9 73 22.8 70 70 S 9 15 29.88 1012 10 16 N/A
10:52 pm 22:52 Mostly Cloudy 83 28.3 72 22.2 70 70 SSW 7 11 29.91 1013 10 16 N/A
11:52 pm 23:52 Mostly Cloudy 82 27.8 72 22.2 72 72 SW 9 15 29.90 1012 10 16 N/A

Powered by AerisWeather